Weather History for Rutland, VT

Change the Weather History Date:

Saturday, September 14, 2013

  Actual Average Record
Temperature  
Mean Temperature 54 °F -  
Max Temperature 59 °F - 86 °F (1982)
Min Temperature 48 °F - 30 °F (1963)
Degree Days  
Heating Degree Days 11    
Month to date heating degree days 79  
Since 1 July heating degree days 150  
Cooling Degree Days 0    
Month to date cooling degree days 39  
Year to date cooling degree days 449  
Growing Degree Days 4 (Base 50)    
Moisture  
Dew Point 48 °F    
Average Humidity 80    
Maximum Humidity 93    
Minimum Humidity 67    
Precipitation  
Precipitation 0.00 in - 1.27 in (1977)
Month to date precipitation 2.44  
Year to date precipitation 19.31  
Sea Level Pressure  
Sea Level Pressure 29.97 in    
Wind  
Wind Speed 5 mph (NW)    
Max Wind Speed 9 mph    
Max Gust Speed 18 mph    
Visibility 10 miles    
Events      
T = Trace of Precipitation, MM = Missing Value Source: NWS Daily Summary

Daily Weather History Graph

Daily Weather History Graph

Search for Another Location

Airport:

Trip Planner

Search our weather history database for the weather conditions in past years. The results will help you decide how hot, cold, wet, or windy it might be!

Date:

Astronomy

Sep. 14, 2013 Rise Set
Actual Time 6:30 AM EDT 7:03 PM EDT
Civil Twilight 6:01 AM EDT 7:32 PM EDT
Nautical Twilight 5:27 AM EDT 8:06 PM EDT
Astronomical Twilight 4:52 AM EDT 8:41 PM EDT
Moon 3:49 PM EDT (9/14) 12:51 AM EDT (9/14)
Length of Visible Light 13h 30m
Length of Day
12h 33m
Waxing Gibbous, 72% of the Moon is Illuminated
Sep 14
Waxing Gibbous
Sep 19
Full
Sep 26
Last Quarter
Oct 4
New
Oct 11
First Quarter

Hourly Weather History & Observations

Time (EDT) Temp. Dew Point Humidity Pressure Visibility Wind Dir Wind Speed Gust Speed Precip Events Conditions
12:15 AM 51.8 °F 46.4 °F 82% 29.85 in 10.0 mi NNW 9.2 mph - N/A   Overcast
12:35 AM 51.8 °F 46.4 °F 82% 29.86 in 10.0 mi NW 6.9 mph - N/A   Overcast
12:55 AM 51.8 °F 46.4 °F 82% 29.86 in 10.0 mi NNW 9.2 mph 18.4 mph N/A   Overcast
1:15 AM 51.8 °F 48.2 °F 88% 29.87 in 10.0 mi NNW 8.1 mph - N/A   Overcast
1:35 AM 50.0 °F 46.4 °F 87% 29.87 in 10.0 mi NNW 8.1 mph - N/A   Overcast
1:55 AM 51.8 °F 46.4 °F 82% 29.87 in 10.0 mi NNW 9.2 mph 17.3 mph N/A   Overcast
2:15 AM 51.8 °F 46.4 °F 82% 29.87 in 10.0 mi NNW 6.9 mph 16.1 mph N/A   Overcast
2:35 AM 51.8 °F 46.4 °F 82% 29.88 in 10.0 mi NW 6.9 mph - N/A   Overcast
2:55 AM 50.0 °F 46.4 °F 87% 29.88 in 10.0 mi NNW 6.9 mph - N/A   Overcast
3:15 AM 51.8 °F 46.4 °F 82% 29.88 in 10.0 mi NW 8.1 mph - N/A   Overcast
3:35 AM 50.0 °F 46.4 °F 87% 29.88 in 10.0 mi NNW 8.1 mph - N/A   Overcast
3:55 AM 50.0 °F 46.4 °F 87% 29.88 in 10.0 mi NW 6.9 mph - N/A   Overcast
4:15 AM 50.0 °F 46.4 °F 87% 29.89 in 10.0 mi NNW 11.5 mph 16.1 mph N/A   Overcast
4:35 AM 50.0 °F 46.4 °F 87% 29.89 in 10.0 mi NW 11.5 mph - N/A   Overcast
4:55 AM 50.0 °F 46.4 °F 87% 29.89 in 10.0 mi NNW 8.1 mph - N/A   Overcast
5:15 AM 50.0 °F 46.4 °F 87% 29.89 in 10.0 mi NNW 11.5 mph - N/A   Overcast
5:35 AM 51.8 °F 46.4 °F 82% 29.91 in 10.0 mi NNW 8.1 mph - N/A   Overcast
5:55 AM 51.8 °F 46.4 °F 82% 29.91 in 10.0 mi NNW 6.9 mph - N/A   Overcast
6:15 AM 50.0 °F 46.4 °F 87% 29.91 in 10.0 mi NNW 8.1 mph - N/A   Overcast
6:35 AM 50.0 °F 46.4 °F 87% 29.92 in 10.0 mi NNW 6.9 mph - N/A   Overcast
6:55 AM 50.0 °F 46.4 °F 87% 29.93 in 10.0 mi NNW 8.1 mph - N/A   Overcast
7:15 AM 50.0 °F 46.4 °F 87% 29.94 in 8.0 mi NNW 9.2 mph - N/A   Overcast
7:35 AM 50.0 °F 46.4 °F 87% 29.94 in 10.0 mi NNW 8.1 mph - N/A   Overcast
7:55 AM 50.0 °F 46.4 °F 87% 29.95 in 10.0 mi NNW 9.2 mph - N/A   Overcast
8:15 AM 50.0 °F 46.4 °F 87% 29.95 in 10.0 mi NNW 6.9 mph - N/A   Overcast
8:35 AM 51.8 °F 46.4 °F 82% 29.96 in 10.0 mi NNW 9.2 mph - N/A   Overcast
8:55 AM 51.8 °F 46.4 °F 82% 29.96 in 10.0 mi NW 6.9 mph - N/A   Overcast
9:15 AM 51.8 °F 44.6 °F 76% 29.97 in 10.0 mi NNW 8.1 mph - N/A   Overcast
9:35 AM 51.8 °F 46.4 °F 82% 29.98 in 10.0 mi NNW 10.4 mph - N/A   Overcast
9:55 AM 51.8 °F 46.4 °F 82% 29.98 in 10.0 mi NNW 5.8 mph - N/A   Overcast
10:15 AM 51.8 °F 46.4 °F 82% 29.99 in 10.0 mi NNW 4.6 mph - N/A   Overcast
10:35 AM 51.8 °F 46.4 °F 82% 29.98 in 10.0 mi NNW 5.8 mph - N/A   Overcast
10:55 AM 51.8 °F 46.4 °F 82% 29.98 in 10.0 mi North 5.8 mph - N/A   Overcast
11:15 AM 53.6 °F 46.4 °F 77% 29.98 in 10.0 mi NNW 9.2 mph - N/A   Mostly Cloudy
11:35 AM 53.6 °F 46.4 °F 77% 29.98 in 10.0 mi NNW 5.8 mph - N/A   Overcast
11:55 AM 53.6 °F 48.2 °F 82% 29.98 in 10.0 mi WNW 8.1 mph - N/A   Overcast
12:15 PM 53.6 °F 46.4 °F 77% 29.99 in 10.0 mi NW 5.8 mph - N/A   Overcast
12:35 PM 53.6 °F 48.2 °F 82% 29.98 in 10.0 mi North 4.6 mph - N/A   Overcast
12:55 PM 55.4 °F 46.4 °F 72% 29.98 in 10.0 mi NW 3.5 mph - N/A   Overcast
1:15 PM 55.4 °F 46.4 °F 72% 29.98 in 10.0 mi NNW 3.5 mph - N/A   Overcast
1:35 PM 55.4 °F 46.4 °F 72% 29.97 in 10.0 mi NW 4.6 mph - N/A   Overcast
1:55 PM 55.4 °F 46.4 °F 72% 29.97 in 10.0 mi NW 5.8 mph - N/A   Overcast
2:15 PM 55.4 °F 46.4 °F 72% 29.97 in 10.0 mi NW 4.6 mph - N/A   Overcast
2:35 PM 55.4 °F 48.2 °F 77% 29.97 in 10.0 mi North 6.9 mph - N/A   Overcast
2:55 PM 55.4 °F 48.2 °F 77% 29.97 in 10.0 mi NW 6.9 mph - N/A   Overcast
3:15 PM 55.4 °F 48.2 °F 77% 29.97 in 10.0 mi WNW 6.9 mph - N/A   Overcast
3:35 PM 57.2 °F 48.2 °F 72% 29.97 in 10.0 mi WNW 3.5 mph - N/A   Overcast
3:55 PM 57.2 °F 48.2 °F 72% 29.97 in 10.0 mi WNW 5.8 mph - N/A   Overcast
4:15 PM 57.2 °F 48.2 °F 72% 29.98 in 10.0 mi NNE 4.6 mph - N/A   Overcast
4:35 PM 57.2 °F 46.4 °F 67% 29.98 in 10.0 mi Calm Calm - N/A   Mostly Cloudy
4:55 PM 59.0 °F 48.2 °F 67% 29.99 in 10.0 mi Calm Calm - N/A   Overcast
5:15 PM 57.2 °F 48.2 °F 72% 29.99 in 10.0 mi Calm Calm - N/A   Overcast
5:35 PM 57.2 °F 48.2 °F 72% 30.00 in 10.0 mi Calm Calm - N/A   Overcast
5:55 PM 57.2 °F 48.2 °F 72% 30.00 in 10.0 mi SSW 3.5 mph - N/A   Overcast
6:15 PM 57.2 °F 48.2 °F 72% 30.00 in 10.0 mi SSW 4.6 mph - N/A   Overcast
6:35 PM 57.2 °F 50.0 °F 77% 30.01 in 10.0 mi Calm Calm - N/A   Overcast
6:55 PM 55.4 °F 51.8 °F 88% 30.02 in 10.0 mi Calm Calm - N/A   Overcast
7:15 PM 55.4 °F 51.8 °F 88% 30.02 in 10.0 mi Calm Calm - N/A   Overcast
7:35 PM 55.4 °F 51.8 °F 88% 30.03 in 10.0 mi Calm Calm - N/A   Overcast
7:55 PM 55.4 °F 51.8 °F 88% 30.04 in 10.0 mi Calm Calm - N/A   Overcast
8:15 PM 53.6 °F 51.8 °F 94% 30.05 in 10.0 mi Calm Calm - N/A   Overcast
8:35 PM 53.6 °F 51.8 °F 94% 30.05 in 10.0 mi Calm Calm - N/A   Overcast
8:55 PM 53.6 °F 51.8 °F 94% 30.05 in 10.0 mi SE 5.8 mph - N/A   Overcast
9:15 PM 51.8 °F 51.8 °F 100% 30.06 in 10.0 mi SE 4.6 mph - N/A   Overcast
9:35 PM 53.6 °F 50.0 °F 88% 30.06 in 10.0 mi SE 4.6 mph - N/A   Overcast
9:55 PM 53.6 °F 50.0 °F 88% 30.07 in 10.0 mi Calm Calm - N/A   Mostly Cloudy
10:15 PM 51.8 °F 50.0 °F 94% 30.07 in 10.0 mi Calm Calm - N/A   Partly Cloudy
10:35 PM 51.8 °F 48.2 °F 88% 30.07 in 10.0 mi Calm Calm - N/A   Scattered Clouds
10:55 PM 50.0 °F 48.2 °F 94% 30.08 in 10.0 mi Calm Calm - N/A   Scattered Clouds
11:15 PM 50.0 °F 48.2 °F 94% 30.09 in 10.0 mi Calm Calm - N/A   Mostly Cloudy
11:35 PM 50.0 °F 48.2 °F 94% 30.08 in 10.0 mi Calm Calm - N/A   Partly Cloudy
11:55 PM 50.0 °F 48.2 °F 94% 30.09 in 10.0 mi Calm Calm - N/A   Clear